User: anonymous   Login
Location: Unspecified
(0.0000°N, 0.0000°E)
Time: 17:59:21
(UTC+02:00)
Language:

SeaSat 1 - Orbit

View from above orbital plane
View from above orbital plane
View from above satellite
View from above satellite

Ground track
Ground track

The orbit data is extracted from the following two-line orbital elements,

1 10967U 78064A   15113.97595731  .00000695  00000-0  24609-3 0  9999
2 10967 107.9968 099.5419 0001960 244.7968 115.2973 14.43360794933293
Epoch (UTC): 23 April 2015 23:25:22
Eccentricity: 0.0001960
inclination: 107.9968°
perigee height: 746 km
apogee height: 749 km
right ascension of ascending node: 99.5419°
argument of perigee: 244.7968°
revolutions per day: 14.43360794
mean anomaly at epoch: 115.2973°
orbit number at epoch: 93329

The dashed part of the orbit path shows where the satellite is in the earth's shadow,  

DLR